www.pogodaiklimat.ru

Погода и климат >> Архив погоды >> Канада >> Rivercourse Agcm


ПОГОДА в Rivercourse Agcm

  • Прогноз погоды в Rivercourse Agcm
  • Монитор погоды в Rivercourse Agcm
  • Климат города

АРХИВ ПОГОДЫ в Rivercourse Agcm

Время (UTC), дата Ветер
(напр.,м/с)
 
Видим.   Явления Облачность Т
(С)
Тd
(С)
f
(%)
Тe
(С)
Тes
(С)
Комфортность P
(гПа)
Po
(гПа)
Тmin
(С)
Tmax
(С)
R
(мм)
R24
(мм)
S
(см)
00 14.11 ЮВ 2 16 км 10/0 2000 м
[]
-11.8 -13.4 88 -16 -16 1014.2 958.7 -12.6 -10.4
03 14.11 В 3 16 км слаб. снег 10/10 1000 м
[]
-11.8 -13.4 88 -17 -17 1009.3 954.1
06 14.11 В 4 16 км слаб. снег 10/10 100 м
[]
-12.4 -14.0 88 -19 -19 1004.8 949.9 -12.6 -8.5
09 14.11 В 4 16 км слаб. снег 10/10 100 м
[]
-13.0 -14.7 87 -20 -20 1000.6 945.8
12 14.11 С 3 2800 м слаб. снег 10/10 600 м
[]
-12.6 -14.3 87 -19 -19 997.3 942.7 -13.0 -8.5
15 14.11 С 4 1600 м слаб. снег н/о -11.7 -13.5 86 -19 -19 996.2 941.7
18 14.11 СЗ 6 1200 м слаб. снег {осадки} н/о -10.6 -12.5 86 -19 -19 996.7 942.2 -13.0 -10.2 0.3
21 14.11 СЗ 8 1600 м слаб. снег н/о -11.4 -13.4 85 -21 -21 999.8 945.1
00 15.11 СЗ 10 2400 м слаб. снег 10/10 600 м
[]
-12.7 -15.3 81 -24 -24 1003.9 948.9 -13.0 -10.2
03 15.11 СЗ 10 4000 м слаб. снег 9/9 600 м
[]
-13.9 -16.7 79 -25 -25 1007.2 952.0
06 15.11 СЗ 7 6000 м слаб. снег 10/10 300 м
[]
-14.5 -17.2 80 -25 -25 1011.0 955.6 -14.6 -10.2 21
09 15.11 СЗ 9 14 км 10/10 300 м
[]
-14.3 -17.0 80 -26 -26 1014.6 959.0
12 15.11 З 3 16 км ясно -16.5 -18.9 82 -24 -24 1018.7 962.6 -16.8 -10.2
15 15.11 СЗ 6 16 км ясно -11.1 -14.9 73 -20 -20 1020.1 964.2
18 15.11 СЗ 7 16 км ясно -8.9 -13.8 68 -18 -17 1020.9 965.1 -16.8 -8.9
21 15.11 З 4 16 км ясно -10.9 -14.7 74 -18 -17 1022.6 966.6
00 16.11 З 3 16 км ясно -16.0 -17.8 86 -22 -22 1023.3 966.8 -18.0 -8.5
03 16.11 З 2 16 км 5/5 600 м
[]
-15.3 -17.1 86 -19 -19 1023.2 967.1
06 16.11 ЮЗ 1 16 км 5/5 1500 м
[]
-15.1 -17.1 85 -18 -18 1022.1 966.2 -20.2 -8.5 91
09 16.11 В 1 3200 м слаб. снег 10/10 600 м
[]
-14.5 -16.5 85 -17 -17 1019.6 963.7
12 16.11 С 1 16 км слаб. снег 10/0
[]
-14.2 -16.2 85 -15 -15 1018.8 962.7 -20.2 -8.5
15 16.11 ЮЗ 2 16 км слаб. снег 5/5 1000 м
[]
-10.8 -13.2 82 -14 -14 1017.4 961.6
18 16.11 ЮЗ 1 14 км слаб. снег 10/10 300 м
[]
-9.6 -12.8 77 -12 -12 1014.8 959.2 -20.2 -9.1
21 16.11 СВ 2 9000 м слаб. снег 10/10 300 м
[]
-11.4 -13.2 86 -16 -16 1012.7 957.2
00 17.11 В 2 4800 м слаб. снег 10/10 1000 м
[]
-11.6 -13.4 86 -15 -15 1010.8 955.4 -17.5 -9.1
03 17.11 СВ 3 12 км слаб. снег 9/9 600 м
[]
-12.4 -14.3 86 -18 -18 1007.5 952.4
06 17.11 СВ 3 4800 м слаб. снег 10/10 1000 м
[]
-11.9 -13.8 86 -17 -17 1005.5 950.6 -17.5 -9.1
09 17.11 В 3 2800 м слаб. снег {осадки} 9/9 600 м
[]
-12.1 -14.0 86 -18 -18 1004.7 949.8
12 17.11 В 3 4800 м слаб. снег {осадки} 10/10 600 м
[]
-13.4 -15.4 85 -19 -19 1004.8 949.8 -13.4 -9.1 0.5
15 17.11 ЮВ 3 4800 м слаб. снег 10/10 600 м
[]
-11.5 -14.0 82 -17 -17 1004.0 949.1
18 17.11 ЮВ 2 16 км слаб. снег {осадки} 9/9 600 м
[]
-10.0 -12.5 82 -15 -14 1003.0 948.2 -13.5 -9.9 0.3
21 17.11 ЮВ 3 4800 м слаб. снег {осадки} 10/10 600 м
[]
-10.5 -12.3 87 -16 -16 1003.5 948.7
00 18.11 ЮВ 2 2000 м слаб. снег {осадки} 10/10 300 м
[]
-10.9 -12.7 87 -15 -15 1003.7 948.8 -13.5 -9.9 0.3
03 18.11 ЮЗ 1 4000 м слаб. снег {осадки} 10/10 600 м
[]
-11.5 -13.0 89 -12 -12 1003.9 949.0
06 18.11 З 4 16 км ясно -12.5 -14.8 83 -20 -20 1006.4 951.4 -13.5 -9.9 0.3
09 18.11 З 4 16 км ясно -15.0 -17.6 80 -22 -22 1009.1 953.8
12 18.11 З 3 16 км 3/3 300 м
[]
-16.6 -19.0 82 -23 -23 1012.7 957.1 -16.6 -9.9
15 18.11 З 4 16 км слаб. снег 10/10 600 м
[]
-12.1 -15.7 75 -19 -19 1014.6 959.1
18 18.11 З 5 16 км 10/10 600 м
[]
-11.3 -16.4 66 -19 -19 1016.1 960.5 -16.6 -10.7
21 18.11 З 3 16 км 10/10 600 м
[]
-13.0 -17.2 71 -19 -19 1018.1 962.2
00 19.11 З 1 16 км ясно -20.2 -22.8 80 -23 -23 1019.8 963.2 -20.2 -10.7
03 19.11 З 2 16 км ясно -19.5 -22.3 78 -24 -24 1019.3 963.1
06 19.11 ЮЗ 1 16 км слаб. снег 10/10 1000 м
[]
-21.3 -23.6 82 -22 -22 1018.8 962.5 -22.9 -10.7 17
09 19.11 З 1 16 км ясно -24.0 -26.1 83 -25 -25 1017.7 961.2
12 19.11 Ю 1 16 км ясно -20.5 -22.8 82 -24 -24 1016.8 960.1 -26.0 -10.7
15 19.11 Ю 2 3200 м слаб. снег 10/10 600 м
[]
-16.8 -19.6 79 -21 -21 1014.4 958.1
18 19.11 ЮЗ 3 16 км 3/3 600 м
[]
-15.0 -18.8 73 -22 -21 1013.5 957.3 -26.0 -14.8
21 19.11 З 2 16 км ясно -17.4 -20.2 79 -23 -22 1015.6 958.9
00 20.11 З 2 16 км ясно -19.4 -21.9 80 -25 -25 1016.6 960.0 -26.0 -14.7
03 20.11 З 2 16 км ясно -20.9 -23.5 80 -27 -27 1016.7 960.2
06 20.11 ЮЗ 2 16 км ясно -21.4 -24.0 79 -28 -28 1017.5 961.0 -26.0 -14.7
09 20.11 ЮЗ 2 16 км ясно -26.1 -28.6 79 -32 -32 опасность
обморожения
1019.0 962.0
12 20.11 З 2 16 км ясно -25.2 -27.8 79 -32 -32 опасность
обморожения
1020.4 963.2 -28.4 -14.7
15 20.11 З 2 16 км ясно -19.4 -22.3 78 -24 -24 1020.9 964.0
18 20.11 Ю 1 16 км ясно -16.0 -20.3 69 -19 -17 1020.4 963.7 -28.4 -15.9
21 20.11 В 1 16 км ясно -25.1 -27.4 81 -26 -25 1022.0 964.3

 

Местоположение метеостанции Rivercourse Agcm (Канада): широта 53.02 долгота -110.10 высота над уровнем моря 669 м.

В архиве по умолчанию представлена погода в Rivercourse Agcm за последнюю неделю. Архивные данные за месяц целиком и за предыдущие месяцы, начиная с января 2011 года, Вы можете получить, выбрав интересующий диапазон дат из раскрывающегося списка и нажав кнопку "Ввод!".


*Определитесь, кто Вы:
робот инопланетянин человек

Внимание! Время в таблицах - всемирное. Для получения местного времени необходимо прибавить поправку, которая в Rivercourse Agcm равна -6 ч.

Смотрите также архив погоды в соседних городах и на ближайших метеорологических станциях:

Погода в Rivercourse AGCM (Канада) (1 км)
Погода в Lloydminister (Канада) (34 км)
Погода в Edgerton Agcm (Канада) (35 км)
Погода в Gilt Edge North Agcm (Канада) (35 км)
Погода в Kitscoty Agcm (Канада) (42 км)
Погода в Ribstone South Agcm (Канада) (51 км)
Погода в Vermilion Agdm (Канада) (58 км)
Погода в Hughenden Agcm (Канада) (68 км)
Погода в Wainwright Cfb Airf (Канада) (71 км)
Погода в Albert Hall Agcm (Канада) (72 км)

Пояснения к столбцам:

Ветер - указаны скорость ветра в м/с - средняя за 10 мин, порывы в срок и между сроками (в фигурных скобках) и направление, откуда дует ветер: С - северный, СВ - северо-восточный, В - восточный, ЮВ - юго-восточный, Ю - южный, ЮЗ - юго-западный, З - западный, СЗ - северо-западный.
Видимость - горизонтальная дальность видимости в метрах или километрах. При видимости от 1 до 10 км при отсутствии осадков обычно наблюдается дымка, при ухудшении видимости до 1 км и менее - туман. В сухую погоду видимость может ухудшаться дымом, пылью или мглою.
Явления - указаны атмосферные явления, наблюдавшиеся в срок или в последний час перед сроком; фигурными скобками обозначены явления, наблюдавшиеся между сроками (за 1-3 часа до срока); квадратными скобками обозначены град или гололедные отложения с указанием их диаметра в мм.
Облачность - указаны через наклонную черту общая и нижняя облачность в баллах и высота нижней границы облаков в метрах; квадратными скобками обозначены формы облаков: Ci - перистые, Cs - перисто-слоистые, Cc - перисто-кучевые, Ac - высококучевые, As - высокослоистые, Sc - слоисто-кучевые, Ns - слоисто-дождевые, Cu - кучевые, Cb - кучево-дождевые. Подробнее классификацию облаков см. в Атласе облаков (PDF).
T - Температура воздуха - температура, измеренная на высоте 2 м над землей.
Td - Температура точки росы - температура, при понижении до которой содержащийся в воздухе водяной пар достигнет насыщения.
f - Относительная влажность воздуха - влажноcть воздуха, измеренная на высоте 2 м над землей.
Te - Эффективная температура - температура, которую ощущает одетый по сезону человек в тени. Характеристика душности погоды. При расчете учитывается влияние влажности воздуха и скорости ветра на теплоощущения человека.
Tes - Эффективная температура на солнце - температура, которую ощущает человек, с поправкой на солнечный нагрев. Характеристика знойности погоды. Зависит от высоты солнца над горизонтом, облачности и скорости ветра. Ночью, в пасмурную погоду, а также при ветре 12 м/с и более поправка равна нулю.
P - Атмосферное давление - приведенное к уровню моря атмосферное давление.
Po - Атмосферное давление - измеренное на уровне метеостанции атмосферное давление.
Tmin - Минимальная температура - минимум температуры воздуха на высоте 2 м над землей.
Tmax - Максимальная температура - максимум температуры воздуха на высоте 2 м над землей.
R - Количество осадков - Количество выпавших осадков за период времени, мм. При наведении курсора мыши на число - период времени, за который выпало указанное количество осадков.
R24 - Количество осадков - Количество выпавших осадков за 24 часа, мм.
S - Снежный покров - Высота снежного покрова, см. При наведении курсора мыши на число - состояние снежного покрова и степень покрытия местности в баллах.